Regional Weather Roundup
Issued by NWS

Home | Current Version | Previous Version | Text Only | Print | Product List | Glossary On
Versions: 1 2 3 4 5 6 7 8 9 10 11 12 13 14 15 16 17 18 19 20 21 22 23 24 25 26 27 28 29 30 31 32 33 34 35 36 37 38 39 40 41 42 43 44 45 46 47 48 49 50
000
ASUS44 KFWD 042215
RWRTX
NORTH TEXAS HOURLY WEATHER ROUNDUP
NATIONAL WEATHER SERVICE FORT WORTH TX
400 PM CST SUN DEC 04 2016

NOTE: "FAIR" INDICATES FEW OR NO CLOUDS BELOW 12,000 FEET WITH NO
SIGNIFICANT WEATHER AND/OR OBSTRUCTIONS TO VISIBILITY.

TXZ118-119-042300-
DALLAS/FORT WORTH METROPLEX

CITY           SKY/WX    TMP DP  RH WIND       PRES   REMARKS
DFW AIRPORT    CLOUDY    52  43  71 N13       30.02S
DALLAS LOVE    CLOUDY    52  44  74 N8        30.03S
FTW MEACHAM    CLOUDY    52  42  69 N10       30.03F
DAL-EXECUTIVE  CLOUDY    51  45  79 N8        30.02S
FTW-ALLIANCE   CLOUDY    51  42  71 N9        30.03F
FTW-NAS-JRB    CLOUDY    52  43  71 N13       30.03F
FTW-SPINKS     CLOUDY    52  43  71 N13       30.04F
ARLINGTON      CLOUDY    51  43  74 NW15      30.02F
GRAND PRAIRIE  CLOUDY    52  43  71 N12       30.03F
ADDISON        CLOUDY    52  48  87 N14G21    30.03S
MESQUITE         N/A     52  45  76 N12       30.01F
LANCASTER      CLOUDY    52  45  75 N9        30.04R
$$

TXZ091>094-102>105-117-120-121-131>134-042300-
NORTH CENTRAL TEXAS

CITY           SKY/WX    TMP DP  RH WIND       PRES   REMARKS
SHRMAN/DENISON CLOUDY    50  45  82 NW9       30.06R
GAINESVILLE    CLOUDY    49  42  75 N7        30.06F
BOWIE          CLOUDY    49  43  78 N6        30.05F
BRIDGEPORT     CLOUDY    50  44  79 N8        30.06F
DECATUR        CLOUDY    49  42  76 N7        30.04F
DENTON         CLOUDY    50  43  77 N12       30.04S
MCKINNEY       CLOUDY    51  45  79 N8        30.03R
BONHAM         CLOUDY    48  43  81 N8        30.04S
GREENVILLE     CLOUDY    50  43  76 N7        30.02F
ROCKWALL       CLOUDY    51  45  78 NE7       30.03S
TERRELL        CLOUDY    52  43  71 N9        30.02S
WAXAHACHIE     CLOUDY    50  45  82 N12       30.03S
CLEBURNE       CLOUDY    50  46  87 N13       30.02S
GRANBURY       CLOUDY    52  44  74 N10       30.05R
$$

TXZ083>090-098>101-113>116-127>130-139>142-154-155-042300-
WESTERN NORTH TEXAS

CITY           SKY/WX    TMP DP  RH WIND       PRES   REMARKS
WICHITA FALLS  MOSUNNY   52  40  63 N8        30.05F
WF-KICKAPOO    PTSUNNY   51  41  68 N8        30.07F
VERNON         SUNNY     56  34  44 N5        30.07S
ABILENE        CLOUDY    47  41  80 N12       30.05F
ABILENE-DYESS  CLOUDY    47  41  77 N10       30.03F
CISCO          CLOUDY    48  43  81 N10       30.04S
BRECKENRIDGE   CLOUDY    50  42  72 N8        30.05S
GRAHAM         CLOUDY    50  43  79 N6        30.03F
MINERAL WELLS  CLOUDY    51  41  68 N10       30.03F
STEPHENVILLE   CLOUDY    49  42  76 N10       30.04F
COMANCHE       CLOUDY    48  45  89 N12       30.02F
BROWNWOOD      CLOUDY    48  41  76 N13       30.03S
COLEMAN        CLOUDY    48  41  77 N12       30.04R
$$

TXZ143>147-156>162-174-175-042300-
CENTRAL TEXAS

CITY           SKY/WX    TMP DP  RH WIND       PRES   REMARKS
WACO           CLOUDY    52  46  80 N16       30.00F
WACO-TSTC      PTSUNNY   52  46  82 N9        30.00F
WACO-MCGREGOR  CLOUDY    51  45  79 N14       30.00S
HILLSBORO      CLOUDY    52  46  80 N14       30.02R
CORSICANA      CLOUDY    53  46  77 N12       30.02S
MEXIA          CLOUDY    51  45  81 N7        29.98F
HEARNE         CLOUDY    53  48  82 N13       29.97S
CAMERON        CLOUDY    53  47  80 N15       29.96F
TEMPLE         CLOUDY    52  46  82 N16       29.98F
KILLEEN        CLOUDY    49  45  86 N15       29.98R
KILLEEN-SKYLRK CLOUDY    51  45  79 N16       29.98F
FORT HOOD        N/A     50  46  87 N14         N/A
GATESVILLE     CLOUDY    50  45  81 N9        30.02S
HAMILTON       CLOUDY    49  45  87 N15       30.01S
LAMPASAS       CLOUDY    50  46  86 N8        29.99S
$$

TXZ095>097-106>112-122>126-135>138-148>153-164>167-042300-
EAST TEXAS

CITY           SKY/WX    TMP DP  RH WIND       PRES   REMARKS
PARIS          CLOUDY    50  43  76 N10       30.03S
SULPHUR SPRNGS CLOUDY    52  46  79 N13       30.04S
MOUNT PLEASANT PTSUNNY   53  44  72 NW10      30.03R
GILMER         CLOUDY    49  46  86 N3        30.01R
MINEOLA        CLOUDY    52  45  76 N9        30.02R
TYLER          CLOUDY    52  46  80 NE7       30.01R
LONGVIEW       CLOUDY    50  47  89 N8        30.02R
MARSHALL       CLOUDY    50  46  85 N5        30.02S
ATHENS         CLOUDY    50  45  81 N8        30.00S
PALESTINE      CLOUDY    51  47  86 N9        30.01S
JACKSONVILLE   CLOUDY    49  47  92 N6        30.03R
HENDERSON      CLOUDY    50  46  87 N5        30.04R
CENTER         CLOUDY    51  49  94 N7        30.00F
NACOGDOCHES    CLOUDY    52  46  82 N9        29.98R
LUFKIN         CLOUDY    50  47  89 NE6       29.96S
$$

SUPPLEMENTAL OBSERVATIONS (CENTRAL)

CITY           SKY/WX    TMP DP  RH WIND       PRES   REMARKS
DENISON DAM      N/A     50  41  71 VRB12       N/A
CADDO GRASSLND   N/A     52  43  71 VRB5        N/A
PAT MAYSE LAKE   N/A     48  45  87 NW9         N/A
GREENVILLE       N/A     50  45  81 N12         N/A
CEDAR HILL       N/A     52  45  76 N6          N/A
ATHENS           N/A     52  45  76 N3          N/A
LAKE LIMESTONE   N/A     52  45  76 N13G22      N/A
MCGREGOR         N/A     52  48  87 N10         N/A
TEMPLE           N/A     52  46  82 VRB5G20     N/A
$$

SUPPLEMENTAL OBSERVATIONS (WEST)

CITY           SKY/WX    TMP DP  RH WIND       PRES   REMARKS
MILLERS CREEK    N/A     52  45  76 NE5         N/A
POSSUM KINGDOM   N/A     48  41  76 N8          N/A
LBJ GRASSLAND    N/A     50  41  71 CALM        N/A
GRANBURY         N/A     52  43  71 N13         N/A
COMANCHE         N/A     48  43  81 VRB13       N/A
HAMBY            N/A     46  39  76 VRB7        N/A
IVIE RESERVOIR   N/A     48  39  71 NE8G16      N/A
COLORADO BEND    N/A     48  43  81 NE6G15      N/A
$$

SUPPLEMENTAL OBSERVATIONS (EAST)

CITY           SKY/WX    TMP DP  RH WIND       PRES   REMARKS
CLARKSVILLE      N/A     52  45  76 N9          N/A
TEXARKANA        N/A     52  45  76 N3          N/A
LINDEN           N/A     52  46  82 CALM        N/A
GILMER           N/A     52  46  82 NE2         N/A
HENDERSON        N/A     50  46  87 N8          N/A
LUFKIN           N/A     52  48  87 MISG        N/A
N SABINE NF      N/A     48  46  93 MISG        N/A
S SABINE NF      N/A     48  46  93 NW3         N/A
$$

SUPPLEMENTAL OBSERVATIONS ARE A COLLECTION OF AUTOMATED INSTRUMENTS
THAT ARE MAINTAINED BY A VARIETY OF FEDERAL AND STATE AGENCIES.
CERTAIN ELEMENTS...SUCH AS HUMIDITY VALUES AND SUSTAINED WIND
SPEEDS...MAY BE APPROXIMATED.




USA.gov is the U.S. government's official web portal to all federal, state and local government web resources and services.